Погода в Кислокане

Погода в Кислокане : погода сейчас, прогноз погоды и архив. Всё, что Вы хотите узнать о погоде в Кислокане!

Поиск расширенной информации на нашем сайте:

Другие новости

Новости СМИ2

Главная страница сайта

Новости сайта

02.10.2013

Напоминаем, что на нашем новом сайте вы можете получить высокодетализированные прогнозы погоды по пунктам России, СНГ и мира (включающие важные для авиации метеовеличины, такие как направление и скорость ветра, видимость, явления погоды, количество и форма облачности, нижняя и верхняя граница облачности), а также ознакомиться с разнообразными материалами по авиационной метеорологии и подборкой полезных ссылок на эту тему.

Сайт Метеоцентр.Азия посвящён разработке технологий оптимизации авиаметеорологического обслуживания, включая проектирование и перспективное создание нескольких автоматизированных авиаметеорологических систем:
- система выпуска высокодетальных прогностических карт явлений погоды для нижнего воздушного пространства по России и ближнему зарубежью;
- система верификации прогнозов TAF (выпускаемых синоптиками официальных АМСГ РФ и ближнего зарубежья) и AUTOTAF (выпускаемых сайтом Метеоцентр.Азия) - выявление ошибок, онлайн-сопоставление с фактической погодой METAR, автоматическое внесение коррективов в прогнозы при резком отклонении фактической погоды от прогноза, подсчёт оправдываемости прогнозов по элементам и в целом;
- система обработки, анализа и отображения авиаметеорологической информации для применения провайдерами метеорологической информации.


Погода в Кислокане - сегодня

Время (UTC), дата Ветер
(°,м/с) 
Видим.   Явления Облачность Т
(°С)
Тd
(°С)
f(%) Тe
(°С)
Pmin
(гПа)
dP
(гПа)
Po
(мм)
O2
(г/м3)
Тmin Tmax R s Состояние
почвы
18 19.06.17 050 (СВ) н/о    ясно 
+13.3 +8.7 74 +15  1009.7  739  282           
21 19.06.17 080 (В) 20000 м    ясно 
+16.4 +8.6 60 +17  1009.3  -0.1  739  279           
00 20.06.17 270 (З) 20000 м    ясно 
+23.7 +7 34 +24  1008.5  -0.2  738  273  +11.1         
03 20.06.17 270 (З) 20000 м    ясно 
+29.3 +6.7 24 +29  1007.1  -1  738  267           
06 20.06.17 280 (З) 20000 м    1/1 1000 м 
[Cu hum]
+32.2 +5.4 19 +32  1005.4  -1.4  737  265           
09 20.06.17 290 (З) 20000 м    1/0 верхняя 
[Ci sp]
+32.3 +4.9 18 +32  1004.5  -0.9  736  264           
12 20.06.17 270 (З) 20000 м    1/0 верхняя 
[Ci sp]
+31.4 +7 22 +31  1003.9  -0.6  735  265    +32.3       
15 20.06.17 тихо ()   н/о    3/0 верхняя 
[Ci sp]
+18 +11.8 67 +22  1005  0.1  736  276           
18 20.06.17 080 (В) н/о    3/3 2000 м средняя 
[Ac trans]
+11.6 +8.8 83 +13  1005.7  0.1  736  283           
21 20.06.17 080 (В) 20000 м    10/3 2000 м средняя, верхняя 
[Ac trans|Ci sp]
+14.1 +10.1 77 +17  1005.6  736  280           
00 21.06.17 120 (ЮВ) 20000 м    6/0 верхняя 
[Ci fib]
+23.9 +12.8 50 +29  1005  0.4  736  270  +10.4         
03 21.06.17 190 (Ю) 20000 м    ясно 
+30.8 +10.7 29 +33  1003.5  -1.1  735  264           
06 21.06.17 270 (З) 20000 м    ясно 
+33.4 +2.9 15 +33  1002.1  -1.2  734  263           
09 21.06.17 270 (З) 20000 м    ясно 
+33.3 +5.9 18 +33  1000.2  -1.8  733  262           
12 21.06.17 290 (З) 20000 м    ясно 
+32.4 +6.4 20 +32  999.9  -0.3  733  263    +33.6       
15 21.06.17 тихо ()   н/о    3/0 верхняя 
[Ci sp]
+19.3 +12.3 64 +24  1000.9  733  273           
18 21.06.17 070 (В) н/о    3/0 верхняя 
[Ci sp]
+12.4 +9.5 82 +15  1001.4  -0.1  733  281           
21 21.06.17 130 (ЮВ) 20000 м    8/1 2000 м средняя, верхняя 
[Ac trans|Ci sp]
+19.2 +10.3 56 +22  1000.4  -0.4  732  274           
00 22.06.17 120 (ЮВ) 20000 м    8/0 верхняя 
[Ci fib]
+22.9 +13 54 +29  999.5  -0.6  732  269  +11.5         
03 22.06.17 280 (З) 20000 м    6/4 1000 м верхняя 
[Sc|Ci fib]
+31.6 +11.9 30 +36  997.3  -1.6  731  262           
06 22.06.17 270 (З) 20000 м    10/3 1000 м верхняя 
[Cu Sc|Ci sp]
+33 +9.9 24 +35  996.1  -1.1  730  261           
09 22.06.17 270 (З) 7-13  20000 м    10/8 600 м кучево-дожд., верхняя 
[Cb cap|Ci sp]
+29.4 +12.2 35 +34  997.1  0.8  730  263           
12 22.06.17 280 (З) 3{13}  20000 м    10/4 600 м кучево-дожд., верхняя 
[Cb cap|Ci sp]
+28.6 +14.6 42 +37  997.3  0.2  731  263    +33.4       
15 22.06.17 310 (СЗ) н/о    4/3 600 м кучево-дожд., верхняя 
[Cb cap|Ci fib]
+23.9 +14.3 55 +32  999.7  732  268           
18 22.06.17 320 (СЗ) н/о    1/1 1000 м 
[Sc]
+18.9 +11.9 64 +24  1002  1.8  733  274           
Время (UTC), дата Ветер
(°,м/с) 
Видим.   Явления Облачность Т
(°С)
Тd
(°С)
f(%) Тe
(°С)
Pmin
(гПа)
dP
(гПа)
Po
(мм)
O2
(г/м3)
Тmin Tmax R s Состояние
почвы

Для получения пояснительной информации подведите курсор к названию столбца.

ПОГОДА в Кислокане - архив

Всё, что Вы хотите узнать о погоде в Кислокане - удобно и подробно!

Выберите нужную дату (начиная с 1 января 2015* года) и нажмите кнопку "Найти".
Будут отображены архивные сводки погоды по пункту Кислокан, начиная с указанной даты.


Отображать данные в формате CSV (для использования в таблицах Excel)


Внимание! Наш архив погоды предназначен исключительно для личного некоммерческого использования в познавательных целях. Если Вам необходимы официальные справки о состоянии погоды (для производственных, юридических, коммерческих и т.п. целей), обращайтесь в органы Росгидромета.

*Примечание: данная дата относится к архиву по метеостанциям СССР (Россия, СНГ, Балтия).
Архив по метеостанциям Зарубежной Европы и Азии (кроме Китая) хранится 10 дней, по другим регионам земного шара (Китай, Африка, Америка, Австралия, Океания) - 1 день.

Кислокан - район местоположения метеостанции


Название, широта, долгота, высота метеостанции:
Кислокан 63.6°ш. 104°д. 209 м над ур. моря [Российская Федерация]

Дополнительная информация

В oтличие oт бoльшинства пoгoдных сайтoв мы публикуем пoдрoбную метеoинфoрмацию в детальнoм прoфессиoнальнoм фoрмате.

Характеристики температуры и влажнoсти вoздуха измеряются на высoте 2 м в тени вдали oт зданий и деревьев.
Скoрoсть ветра измеряется на высoте 10 м (на урoвне рoста челoвека скoрoсть ветра ниже в 1.5-2 раза). Если метеoстанция нахoдится в гoрoде или в лесу, тo скoрoсть ветра занижена на 2-4 м/с пo сравнению с oткрытым местoм. Скoрoсть ветра над акватoриями крупных рек и oзёр, а также на вершинах хoлмoв на 2-5 м/с выше, чем в oбычных услoвиях.
Атмoсфернoе давление в разных тoчках местнoсти мoжет значительнo oтличаться oт давления на метеoстанции, в зависимoсти oт услoвий рельефа (при пoдъёме на 10 м давление пoнижается примернo на 1 мм рт.ст.).